Location: Bagnara
(41.0500°N, 14.7833°E)
Time: 11:44:41
(UTC+00:00)

Cosmos 2263 - Pass Details

Date: 20 June 2021
Orbit: 831 x 865 km, 70.9° (Epoch: 27 July)

Event Time Altitude Azimuth Distance (km) Brightness Sun altitude
Rises 00:43:38 0° 330° (NNW) 3,416 7.9 -21.4°
Reaches altitude 10° 00:46:10 10° 325° (NW) 2,472 7.0 -21.2°
Maximum altitude 00:51:34 48° 253° (WSW) 1,092 4.5 -20.7°
Enters shadow 00:52:47 41° 217° (SW) 1,198 4.5 -20.6°
